Flag for Romania Weather past 2 weeks in Bucharest, Romania

Now
57 °F

Clear.


Feels Like: 55 °F
Forecast: 44 / 56 °F
Wind: 8 mph from West

Location: Bucharest / Imh

Current Time: Apr 18, 2015 at 6:58:44 AM

Latest Report: Apr 18, 2015 at 6:30 AM


Visibility: 10 mi

Pressure: 29.77 "Hg

Humidity: 63%

Dew point: 45 °F

Location of BucharestLocation

Historic Weather in Bucharest — Graph

°F

Bucharest temperature yesterday

Maximum temperature yesterday: 81 °F (at 3:30 PM)
Minimum temperature yesterday: 54 °F (at 6:00 AM)
Average temperature yesterday: 67 °F

Past Weeks' High & Low Weather Summary

 TemperatureHumidityPressure
High81 °F (Apr 17, 3:30 PM)100% (Apr 6, 5:30 AM)30.42 "Hg (Apr 6, 5:30 AM)
Low34 °F (Apr 4, 5:30 AM)19% (Apr 11, 3:30 PM)29.65 "Hg (Apr 3, 6:30 AM)
Average53 °F51%30.05 "Hg
* Reported Apr 3 5:00 AM — Apr 18 5:30 AM, Bucharest, Weather by CustomWeather, © 2015

Note: Actual official high and low records may vary slightly from our data, if they occured in-between our weather recording intervals... More about our weather records

Advertising

Bucharest weather history for previous 24 hours

 ConditionsComfort  
Time TempWeatherWind HumidityBarometerVisibility
5:30 AM
Sat, Apr 18
57 °FClear.5 mph59%29.77 "Hg10 mi
5:00 AM57 °FClear.5 mph59%29.77 "Hg10 mi
4:30 AM57 °FPassing clouds.5 mph63%29.80 "HgN/A
4:00 AM59 °FClear.6 mph59%29.80 "Hg10 mi
3:30 AM59 °FPassing clouds.7 mph59%29.80 "HgN/A
3:00 AM61 °FPassing clouds.9 mph55%29.80 "HgN/A
2:30 AM61 °FPassing clouds.5 mph55%29.80 "HgN/A
2:00 AM61 °FPassing clouds.5 mph55%29.80 "HgN/A
1:30 AM63 °FClear.6 mph52%29.80 "Hg10 mi
1:00 AM63 °FClear.6 mph52%29.80 "Hg10 mi
12:30 AM64 °FClear.6 mph46%29.77 "Hg10 mi
12:00 AM64 °FClear.3 mph46%29.80 "Hg10 mi
11:30 PM
Fri, Apr 17
68 °FPassing clouds.5 mph40%29.80 "HgN/A
11:00 PM68 °FPassing clouds.6 mph40%29.80 "HgN/A
10:30 PM70 °FPassing clouds.7 mph38%29.80 "HgN/A
10:00 PM70 °FPassing clouds.10 mph35%29.80 "HgN/A
9:30 PM70 °FPassing clouds.9 mph35%29.80 "HgN/A
9:00 PM72 °FSunny.10 mph33%29.77 "Hg10 mi
8:30 PM72 °FSunny.12 mph33%29.77 "Hg10 mi
8:00 PM73 °FSunny.12 mph31%29.77 "Hg10 mi
7:30 PM75 °FSunny.14 mph29%29.77 "Hg10 mi
7:00 PM77 °FPassing clouds.14 mph28%29.80 "HgN/A
6:30 PM77 °FPassing clouds.16 mph26%29.80 "HgN/A
6:00 PM79 °FPassing clouds.16 mph26%29.80 "HgN/A
5:30 PM79 °FPassing clouds.20 mph26%29.80 "HgN/A
5:00 PM79 °FPassing clouds.17 mph26%29.80 "HgN/A
4:30 PM79 °FPassing clouds.17 mph28%29.83 "HgN/A
4:00 PM79 °FSunny.18 mph28%29.83 "Hg10 mi
3:30 PM81 °FPassing clouds.17 mph26%29.83 "HgN/A
3:00 PM79 °FPassing clouds.15 mph32%29.86 "HgN/A
2:30 PM79 °FPassing clouds.15 mph30%29.86 "HgN/A
2:00 PM79 °FPassing clouds.13 mph30%29.86 "HgN/A
1:30 PM79 °FPassing clouds.13 mph34%29.89 "HgN/A
1:00 PM75 °FPassing clouds.12 mph39%29.89 "HgN/A
12:30 PM73 °FPassing clouds.12 mph41%29.89 "HgN/A
12:00 PM72 °FPassing clouds.10 mph41%29.92 "HgN/A
11:30 AM72 °FPassing clouds.12 mph44%29.92 "HgN/A
11:00 AM70 °FPassing clouds.9 mph46%29.92 "HgN/A
10:30 AM68 °FPassing clouds.6 mph46%29.92 "HgN/A
10:00 AM66 °FSunny.6 mph49%29.92 "Hg10 mi
9:30 AM63 °FSunny.7 mph52%29.92 "Hg10 mi
9:00 AM59 °FSunny.6 mph59%29.92 "Hg10 mi
8:30 AM57 °FSunny.5 mph63%29.92 "Hg10 mi
8:00 AM55 °FSunny.3 mph67%29.92 "Hg10 mi
7:30 AM54 °FSunny.2 mph72%29.92 "Hg10 mi
7:00 AM54 °FClear.5 mph72%29.92 "Hg10 mi
6:30 AM54 °FClear.5 mph67%29.92 "Hg10 mi
6:00 AM54 °FClear.3 mph67%29.92 "Hg10 mi
Weather by CustomWeather, © 2015

See weather overviewHow to use our weather pages